�������l�o���
Date,Time,MP-1(��Sv/h),MP-2(��Sv/h),MP-3(��Sv/h),MP-4(��Sv/h),MP-5(��Sv/h),MP-6(��Sv/h),MP-7(��Sv/h),MP-8(��Sv/h),����,����(m/s),���J
2019/04/04,00:00,0.768,1.129,0.777,1.444,1.045,0.437,0.775,0.737,��,5.2,��
2019/04/04,00:10,0.767,1.129,0.780,1.443,1.047,0.436,0.777,0.738,��,4.5,��
2019/04/04,00:20,0.767,1.129,0.777,1.442,1.046,0.437,0.776,0.736,��,4.7,��
2019/04/04,00:30,0.769,1.130,0.779,1.442,1.045,0.437,0.776,0.737,��,4.4,��
2019/04/04,00:40,0.768,1.129,0.779,1.444,1.046,0.438,0.776,0.738,���k��,3.0,��
2019/04/04,00:50,0.767,1.131,0.778,1.441,1.048,0.436,0.776,0.736,��,3.0,��
2019/04/04,01:00,0.769,1.128,0.779,1.445,1.045,0.436,0.778,0.736,��,3.6,��
2019/04/04,01:10,0.768,1.129,0.777,1.442,1.046,0.437,0.775,0.737,��,2.6,��
2019/04/04,01:20,0.766,1.129,0.778,1.442,1.046,0.437,0.775,0.735,��,2.0,��
2019/04/04,01:30,0.767,1.130,0.779,1.444,1.046,0.436,0.777,0.737,���쐼,1.7,��
2019/04/04,01:40,0.768,1.128,0.779,1.443,1.046,0.437,0.776,0.737,���쐼,2.6,��
2019/04/04,01:50,0.770,1.129,0.778,1.443,1.048,0.437,0.777,0.736,��,3.3,��
2019/04/04,02:00,0.767,1.127,0.778,1.442,1.045,0.437,0.777,0.736,���쐼,3.6,��
2019/04/04,02:10,0.768,1.130,0.780,1.446,1.047,0.437,0.777,0.735,��,5.0,��
2019/04/04,02:20,0.767,1.129,0.779,1.444,1.047,0.438,0.777,0.737,��,5.1,�L
2019/04/04,02:30,0.768,1.129,0.780,1.443,1.046,0.438,0.777,0.738,��,3.8,�L
2019/04/04,02:40,0.769,1.129,0.778,1.444,1.046,0.438,0.777,0.738,��,3.5,��
2019/04/04,02:50,0.768,1.131,0.780,1.442,1.046,0.438,0.777,0.736,���k��,3.1,��
2019/04/04,03:00,0.767,1.129,0.779,1.444,1.048,0.437,0.778,0.737,��,3.3,��
2019/04/04,03:10,0.769,1.130,0.779,1.443,1.047,0.439,0.778,0.736,��,4.9,�L
2019/04/04,03:20,0.768,1.128,0.780,1.444,1.047,0.438,0.779,0.738,��,5.3,�L
2019/04/04,03:30,0.770,1.127,0.779,1.442,1.046,0.437,0.778,0.739,��,5.2,�L
2019/04/04,03:40,0.770,1.128,0.779,1.445,1.046,0.438,0.780,0.739,��,4.5,��
2019/04/04,03:50,0.767,1.129,0.780,1.442,1.047,0.436,0.777,0.739,���쐼,4.4,��
2019/04/04,04:00,0.768,1.129,0.779,1.440,1.046,0.436,0.778,0.737,���쐼,4.5,��
2019/04/04,04:10,0.769,1.128,0.778,1.446,1.045,0.437,0.780,0.738,���쐼,4.6,��
2019/04/04,04:20,0.768,1.128,0.781,1.445,1.046,0.436,0.778,0.736,���쐼,4.2,��
2019/04/04,04:30,0.769,1.129,0.779,1.444,1.046,0.438,0.778,0.738,�쐼,4.4,��
2019/04/04,04:40,0.769,1.128,0.779,1.446,1.047,0.437,0.779,0.737,���쐼,3.3,��
2019/04/04,04:50,0.769,1.130,0.778,1.443,1.047,0.436,0.779,0.739,�쐼,3.0,��
2019/04/04,05:00,0.769,1.129,0.778,1.444,1.047,0.438,0.776,0.738,�쐼,2.6,��
2019/04/04,05:10,0.768,1.129,0.778,1.446,1.046,0.437,0.778,0.736,�쐼,2.8,��
2019/04/04,05:20,0.769,1.129,0.779,1.443,1.047,0.437,0.777,0.737,�쐼,3.5,��
2019/04/04,05:30,0.767,1.130,0.779,1.445,1.048,0.436,0.778,0.739,�쐼,4.3,��
2019/04/04,05:40,0.768,1.132,0.779,1.443,1.045,0.437,0.776,0.738,�쐼,4.1,��
2019/04/04,05:50,0.770,1.128,0.780,1.444,1.047,0.438,0.776,0.739,�쐼,4.4,��
2019/04/04,06:00,0.770,1.131,0.777,1.444,1.046,0.436,0.777,0.737,�쐼,4.1,��
2019/04/04,06:10,0.772,1.131,0.780,1.445,1.047,0.436,0.778,0.738,�쐼,4.1,��
2019/04/04,06:20,0.769,1.130,0.780,1.443,1.044,0.437,0.778,0.737,��쐼,4.0,��
2019/04/04,06:30,0.768,1.133,0.778,1.444,1.046,0.437,0.779,0.740,��쐼,5.1,��
2019/04/04,06:40,0.768,1.129,0.779,1.443,1.049,0.438,0.779,0.737,��쐼,4.6,��
2019/04/04,06:50,0.769,1.130,0.779,1.444,1.045,0.438,0.778,0.736,��쐼,5.0,��
2019/04/04,07:00,0.770,1.129,0.779,1.445,1.046,0.438,0.779,0.736,��쐼,5.3,��
2019/04/04,07:10,0.771,1.128,0.780,1.446,1.047,0.438,0.781,0.737,��쐼,5.4,��
2019/04/04,07:20,0.768,1.131,0.779,1.444,1.048,0.438,0.778,0.738,��쐼,5.0,��
2019/04/04,07:30,0.769,1.128,0.780,1.443,1.048,0.439,0.779,0.738,��쐼,4.6,��
2019/04/04,07:40,0.767,1.128,0.781,1.445,1.047,0.437,0.779,0.739,��쐼,4.9,��
2019/04/04,07:50,0.770,1.130,0.782,1.447,1.048,0.439,0.780,0.738,��쐼,6.0,��
2019/04/04,08:00,0.771,1.130,0.780,1.444,1.048,0.439,0.779,0.739,�쐼,7.0,��
2019/04/04,08:10,0.771,1.133,0.782,1.446,1.047,0.438,0.779,0.738,�쐼,7.5,��
2019/04/04,08:20,0.770,1.129,0.780,1.445,1.051,0.439,0.780,0.738,�쐼,6.0,��
2019/04/04,08:30,0.772,1.130,0.779,1.448,1.048,0.437,0.780,0.739,���쐼,7.4,��
2019/04/04,08:40,0.771,1.130,0.781,1.447,1.049,0.438,0.777,0.738,��,6.5,��
2019/04/04,08:50,0.771,1.129,0.781,1.446,1.048,0.439,0.780,0.738,��,7.2,��
2019/04/04,09:00,0.774,1.127,0.782,1.447,1.052,0.439,0.778,0.740,���쐼,5.7,��
2019/04/04,09:10,0.771,1.125,0.781,1.445,1.050,0.440,0.779,0.739,���쐼,4.8,��
2019/04/04,09:20,0.774,1.128,0.781,1.445,1.052,0.440,0.777,0.737,�쐼,4.6,��
2019/04/04,09:30,0.771,1.130,0.781,1.446,1.051,0.439,0.777,0.736,���쐼,4.8,��
2019/04/04,09:40,0.772,1.125,0.782,1.447,1.050,0.441,0.778,0.739,�쐼,5.4,��
2019/04/04,09:50,0.772,1.126,0.782,1.446,1.050,0.438,0.780,0.740,���쐼,6.6,��
2019/04/04,10:00,0.771,1.129,0.782,1.451,1.048,0.439,0.779,0.738,��,6.4,��
2019/04/04,10:10,0.774,1.129,0.782,1.449,1.050,0.433,0.779,0.735,��,5.4,��
2019/04/04,10:20,0.773,1.125,0.781,1.450,1.052,0.436,0.778,0.738,��,4.5,��
2019/04/04,10:30,0.775,1.131,0.784,1.447,1.051,0.438,0.779,0.738,�쐼,6.8,��
2019/04/04,10:40,0.774,1.127,0.783,1.449,1.051,0.440,0.780,0.738,���쐼,7.7,��
2019/04/04,10:50,0.773,1.128,0.784,1.450,1.050,0.440,0.779,0.737,��,6.2,��
2019/04/04,11:00,0.770,1.130,0.782,1.448,1.050,0.440,0.780,0.737,�쐼,6.3,��
2019/04/04,11:10,0.772,1.129,0.783,1.447,1.051,0.441,0.781,0.738,��,6.2,��
2019/04/04,11:20,0.774,1.127,0.782,1.447,1.051,0.441,0.780,0.737,���k��,7.0,��
2019/04/04,11:30,0.772,1.129,0.785,1.451,1.048,0.438,0.779,0.737,���k��,7.9,��
2019/04/04,11:40,0.772,1.131,0.784,1.450,1.051,0.440,0.780,0.736,��,7.7,��
2019/04/04,11:50,0.772,1.131,0.784,1.451,1.047,0.439,0.780,0.737,��,9.1,��
2019/04/04,12:00,0.773,1.129,0.786,1.452,1.050,0.439,0.779,0.739,���k��,8.3,��
2019/04/04,12:10,0.774,1.128,0.782,1.448,1.051,0.441,0.779,0.738,��,6.5,��
2019/04/04,12:20,0.775,1.131,0.784,1.449,1.050,0.440,0.780,0.739,��,7.9,��
2019/04/04,12:30,0.773,1.130,0.785,1.452,1.049,0.440,0.779,0.738,���k��,10.5,��
2019/04/04,12:40,0.776,1.132,0.783,1.452,1.051,0.443,0.780,0.737,��,9.2,��
2019/04/04,12:50,0.775,1.130,0.785,1.449,1.051,0.442,0.780,0.737,��,9.8,��
2019/04/04,13:00,0.776,1.131,0.783,1.449,1.053,0.442,0.779,0.738,��,8.8,��
2019/04/04,13:10,0.774,1.129,0.782,1.451,1.050,0.441,0.781,0.737,���쐼,11.1,��
2019/04/04,13:20,0.775,1.132,0.784,1.452,1.054,0.441,0.781,0.738,���쐼,8.6,��
2019/04/04,13:30,0.772,1.131,0.783,1.453,1.054,0.442,0.781,0.738,���쐼,5.3,��
2019/04/04,13:40,0.774,1.132,0.785,1.453,1.050,0.443,0.781,0.739,��,8.4,��
2019/04/04,13:50,0.774,1.131,0.784,1.452,1.053,0.443,0.780,0.739,��,10.0,��
2019/04/04,14:00,0.776,1.131,0.784,1.456,1.055,0.443,0.780,0.738,��,10.4,��
2019/04/04,14:10,0.774,1.130,0.785,1.453,1.055,0.442,0.781,0.738,���k��,10.2,��
2019/04/04,14:20,0.773,1.130,0.784,1.455,1.055,0.442,0.781,0.738,��,8.6,��
2019/04/04,14:30,0.773,1.131,0.784,1.453,1.054,0.441,0.780,0.739,��,7.5,��
2019/04/04,14:40,0.775,1.132,0.782,1.454,1.054,0.441,0.782,0.739,��,7.2,��
2019/04/04,14:50,0.775,1.132,0.782,1.456,1.054,0.440,0.781,0.738,��,4.8,��
2019/04/04,15:00,0.777,1.132,0.782,1.452,1.050,0.441,0.782,0.737,��,5.3,��
2019/04/04,15:10,0.776,1.135,0.783,1.451,1.056,0.442,0.782,0.738,��,7.5,��
2019/04/04,15:20,0.775,1.132,0.783,1.454,1.055,0.440,0.781,0.738,��,8.4,��
2019/04/04,15:30,0.775,1.128,0.784,1.453,1.054,0.442,0.781,0.738,��,10.5,��
2019/04/04,15:40,0.775,1.133,0.782,1.451,1.054,0.443,0.784,0.738,��,8.8,��
2019/04/04,15:50,0.773,1.137,0.783,1.450,1.056,0.442,0.780,0.737,��,7.5,��
2019/04/04,16:00,0.774,1.133,0.781,1.450,1.056,0.443,0.781,0.738,���k��,8.3,��
2019/04/04,16:10,0.774,1.137,0.783,1.452,1.057,0.443,0.782,0.738,��,8.6,��
2019/04/04,16:20,0.773,1.136,0.780,1.450,1.054,0.445,0.781,0.737,��,8.2,��
2019/04/04,16:30,0.773,1.139,0.783,1.449,1.052,0.443,0.783,0.738,��,9.6,��
2019/04/04,16:40,0.772,1.140,0.784,1.452,1.054,0.444,0.781,0.739,��,5.9,��
2019/04/04,16:50,0.774,1.137,0.783,1.451,1.054,0.444,0.781,0.738,��,8.3,��
2019/04/04,17:00,0.773,1.138,0.782,1.452,1.054,0.443,0.781,0.740,��,8.1,��
2019/04/04,17:10,0.773,1.139,0.784,1.451,1.055,0.444,0.779,0.741,��,5.9,��
2019/04/04,17:20,0.776,1.141,0.784,1.451,1.054,0.442,0.782,0.741,��,6.9,��
2019/04/04,17:30,0.775,1.139,0.785,1.451,1.054,0.443,0.778,0.740,��,5.4,��
2019/04/04,17:40,0.776,1.138,0.784,1.456,1.055,0.444,0.781,0.741,��,3.8,��
2019/04/04,17:50,0.775,1.139,0.787,1.450,1.054,0.444,0.779,0.741,���쐼,3.5,��
2019/04/04,18:00,0.776,1.138,0.786,1.452,1.055,0.444,0.781,0.740,��,3.3,��
2019/04/04,18:10,0.774,1.140,0.785,1.454,1.057,0.443,0.783,0.740,��,3.9,��
2019/04/04,18:20,0.775,1.138,0.787,1.453,1.057,0.442,0.782,0.740,���쐼,4.4,��
2019/04/04,18:30,0.777,1.137,0.785,1.456,1.056,0.443,0.782,0.740,���쐼,4.9,��
2019/04/04,18:40,0.778,1.136,0.786,1.457,1.058,0.443,0.782,0.740,�쐼,6.5,��
2019/04/04,18:50,0.776,1.139,0.785,1.454,1.055,0.443,0.783,0.740,�쐼,7.2,��
2019/04/04,19:00,0.776,1.138,0.785,1.457,1.056,0.442,0.784,0.740,�쐼,8.3,��
2019/04/04,19:10,0.776,1.140,0.785,1.455,1.055,0.441,0.782,0.741,���쐼,8.7,��
2019/04/04,19:20,0.777,1.136,0.787,1.460,1.056,0.443,0.783,0.741,�쐼,8.0,��
2019/04/04,19:30,0.777,1.135,0.787,1.456,1.059,0.442,0.782,0.740,��쐼,7.2,��
2019/04/04,19:40,0.775,1.137,0.788,1.455,1.056,0.442,0.781,0.741,��쐼,6.8,��
2019/04/04,19:50,0.777,1.138,0.785,1.456,1.057,0.442,0.783,0.740,��,7.7,��
2019/04/04,20:00,0.773,1.138,0.786,1.457,1.054,0.442,0.783,0.740,��,10.2,��
2019/04/04,20:10,0.775,1.138,0.785,1.458,1.055,0.444,0.784,0.740,��,9.8,��
2019/04/04,20:20,0.776,1.138,0.786,1.456,1.057,0.441,0.782,0.741,��,8.9,��
2019/04/04,20:30,0.776,1.138,0.786,1.455,1.057,0.443,0.783,0.740,��,9.4,��
2019/04/04,20:40,0.775,1.139,0.787,1.458,1.059,0.443,0.782,0.741,��쐼,8.6,��
2019/04/04,20:50,0.776,1.138,0.787,1.456,1.057,0.444,0.783,0.740,��쐼,9.0,��
2019/04/04,21:00,0.776,1.138,0.786,1.456,1.057,0.443,0.784,0.741,��쐼,8.6,��
2019/04/04,21:10,0.777,1.138,0.786,1.455,1.057,0.443,0.784,0.742,��,8.8,��
2019/04/04,21:20,0.775,1.139,0.787,1.456,1.057,0.443,0.782,0.742,��,8.9,��
2019/04/04,21:30,0.775,1.137,0.787,1.456,1.054,0.442,0.784,0.741,��,8.4,��
2019/04/04,21:40,0.777,1.138,0.786,1.455,1.055,0.443,0.783,0.742,��,7.6,��
2019/04/04,21:50,0.775,1.139,0.785,1.456,1.054,0.442,0.784,0.740,��쐼,5.6,��
2019/04/04,22:00,0.777,1.136,0.787,1.456,1.056,0.443,0.782,0.741,��,6.6,��
2019/04/04,22:10,0.775,1.137,0.785,1.456,1.055,0.442,0.782,0.740,��,6.0,��
2019/04/04,22:20,0.776,1.137,0.784,1.455,1.055,0.444,0.784,0.741,��,5.1,��
2019/04/04,22:30,0.776,1.136,0.785,1.456,1.055,0.441,0.785,0.741,��,5.2,��
2019/04/04,22:40,0.775,1.137,0.786,1.455,1.058,0.443,0.783,0.742,��쐼,3.8,��
2019/04/04,22:50,0.775,1.138,0.786,1.455,1.055,0.443,0.783,0.739,��,4.4,��
2019/04/04,23:00,0.775,1.134,0.786,1.456,1.057,0.444,0.781,0.739,��,3.0,��
2019/04/04,23:10,0.775,1.139,0.785,1.454,1.055,0.443,0.784,0.739,��쓌,3.7,��
2019/04/04,23:20,0.774,1.135,0.784,1.455,1.057,0.442,0.784,0.740,��,4.9,��
2019/04/04,23:30,0.777,1.137,0.784,1.455,1.054,0.442,0.782,0.740,��,5.6,��
2019/04/04,23:40,0.773,1.137,0.784,1.456,1.056,0.444,0.782,0.739,��,5.3,��
2019/04/04,23:50,0.776,1.137,0.784,1.454,1.055,0.443,0.784,0.739,��쓌,4.9,��
